Ames, IA

6:23 PM CST on December 15, 2017 (GMT -0600)
Ames Municipal

Weather History for KAMW - November, 2013

Change the Weather History Date:

Friday, November 8, 2013

  Actual Average Record
Temperature  
Mean Temperature 40 °F 40 °F  
Max Temperature 57 °F 51 °F 82 °F (1999)
Min Temperature 22 °F 30 °F 14 °F (2003)
Degree Days  
Heating Degree Days 25 25  
Month to date heating degree days 180 182  
Since 1 July heating degree days 720 778  
Cooling Degree Days 0 0  
Month to date cooling degree days 0 0  
Year to date cooling degree days 913 752  
Moisture  
Dew Point 30 °F    
Average Humidity 70    
Maximum Humidity 100    
Minimum Humidity 40    
Precipitation  
Precipitation 0.00 in 0.08 in 1.42 in (2011)
Month to date precipitation 1.13 0.75  
Sea Level Pressure  
Sea Level Pressure 30.00 in    
Wind  
Wind Speed 11 mph (South)    
Max Wind Speed 30 mph    
Max Gust Speed 40 mph    
Visibility 10 miles    
Events      
T = Trace of Precipitation, MM = Missing Value Source: NWS Daily Summary

Daily Weather History Graph

Daily Weather History Graph

Search for Another Location

Airport or City:

Trip Planner

Search our weather history database for the weather conditions in past years. The results will help you decide how hot, cold, wet, or windy it might be!

Date:

Astronomy

Nov. 08, 2013 Rise Set
Actual Time 6:56 AM CST 4:59 PM CST
Civil Twilight 6:26 AM CST 5:29 PM CST
Nautical Twilight 5:53 AM CST 6:02 PM CST
Astronomical Twilight 5:20 AM CST 6:35 PM CST
Moon 11:52 AM CST (11/8) 10:21 PM CST (11/8)
Length of Visible Light 11h 02m
Length of Day
10h 03m
Waxing Crescent, 33% of the Moon is Illuminated
Nov 8
Waxing Crescent
Nov 9
First Quarter
Nov 17
Full
Nov 25
Last Quarter
Dec 2
New

Hourly Weather History & Observations

Time (CST) Temp. Windchill Dew Point Humidity Pressure Visibility Wind Dir Wind Speed Gust Speed Precip Events Conditions
12:53 AM 24.1 °F - 23.0 °F 96% 30.29 in 10.0 mi Calm Calm - N/A   Clear
1:53 AM 24.1 °F - 21.9 °F 91% 30.28 in 10.0 mi Calm Calm - N/A   Clear
2:53 AM 23.0 °F - 21.9 °F 96% 30.27 in 10.0 mi Calm Calm - N/A   Clear
3:53 AM 23.0 °F 18.4 °F 21.0 °F 92% 30.26 in 10.0 mi SE 3.5 mph - N/A   Clear
4:53 AM 21.9 °F - 21.9 °F 100% 30.25 in 10.0 mi Calm Calm - N/A   Clear
5:53 AM 25.0 °F 19.3 °F 21.9 °F 88% 30.22 in 10.0 mi SE 4.6 mph - N/A   Clear
6:53 AM 28.0 °F 21.7 °F 24.1 °F 85% 30.20 in 10.0 mi SSE 5.8 mph - N/A   Clear
7:53 AM 30.0 °F 21.7 °F 26.1 °F 85% 30.20 in 10.0 mi SSE 9.2 mph - N/A   Clear
8:53 AM 32.0 °F 24.8 °F 27.0 °F 82% 30.17 in 10.0 mi SSE 8.1 mph - N/A   Clear
9:53 AM 37.0 °F 28.9 °F 28.0 °F 70% 30.12 in 10.0 mi SSE 12.7 mph - N/A   Clear
10:53 AM 41.0 °F 32.8 °F 27.0 °F 57% 30.07 in 10.0 mi SE 16.1 mph - N/A   Clear
11:53 AM 45.0 °F 37.4 °F 30.0 °F 56% 29.98 in 10.0 mi SSE 18.4 mph 29.9 mph N/A   Clear
12:53 PM 53.1 °F - 33.1 °F 47% 29.89 in 10.0 mi SSE 24.2 mph 39.1 mph N/A   Clear
1:53 PM 55.9 °F - 35.1 °F 45% 29.84 in 10.0 mi SSE 21.9 mph 35.7 mph N/A   Clear
2:53 PM 57.0 °F - 34.0 °F 42% 29.81 in 10.0 mi South 19.6 mph 28.8 mph N/A   Clear
3:53 PM 57.0 °F - 34.0 °F 42% 29.81 in 10.0 mi South 19.6 mph 28.8 mph N/A   Clear
4:53 PM 55.9 °F - 34.0 °F 44% 29.78 in 10.0 mi South 16.1 mph - N/A   Clear
5:53 PM 55.0 °F - 35.1 °F 47% 29.78 in 10.0 mi South 17.3 mph - N/A   Clear
6:53 PM 55.0 °F - 35.1 °F 47% 29.78 in 10.0 mi South 16.1 mph - N/A   Clear
7:53 PM 54.0 °F - 36.0 °F 51% 29.78 in 10.0 mi South 13.8 mph - N/A   Mostly Cloudy
8:53 PM 51.1 °F - 36.0 °F 56% 29.79 in 10.0 mi SSW 12.7 mph - N/A   Clear
9:53 PM 48.9 °F - 37.0 °F 64% 29.80 in 10.0 mi WSW 12.7 mph - N/A   Clear
10:53 PM 45.0 °F 40.1 °F 36.0 °F 71% 29.81 in 10.0 mi SW 9.2 mph - N/A   Clear
11:53 PM 44.1 °F 39.0 °F 37.0 °F 76% 29.82 in 10.0 mi West 9.2 mph - N/A   Clear